TimeEDT,TemperatureF,Dew PointF,Humidity,Sea Level PressureIn,VisibilityMPH,Wind Direction,Wind SpeedMPH,Gust SpeedMPH,PrecipitationIn,Events,Conditions,WindDirDegrees,DateUTC
12:56 AM,57.0,52.0,83,30.08,10.0,NW,4.6,-,N/A,,Clear,320,2013-08-05 04:56:00
1:56 AM,55.9,51.1,84,30.08,10.0,Calm,Calm,-,N/A,,Clear,0,2013-08-05 05:56:00
2:56 AM,53.1,50.0,89,30.09,10.0,Calm,Calm,-,N/A,,Clear,0,2013-08-05 06:56:00
3:56 AM,52.0,48.9,89,30.09,10.0,Calm,Calm,-,N/A,,Clear,0,2013-08-05 07:56:00
4:42 AM,51.8,48.2,88,30.11,1.2,Calm,Calm,-,N/A,,Clear,0,2013-08-05 08:42:00
4:47 AM,51.8,48.2,88,30.11,0.2,Calm,Calm,-,N/A,Fog,Fog,0,2013-08-05 08:47:00
4:56 AM,51.1,48.0,89,30.10,0.5,Calm,Calm,-,N/A,Fog,Fog,0,2013-08-05 08:56:00
5:01 AM,51.8,48.2,88,30.12,2.5,Calm,Calm,-,N/A,,Clear,0,2013-08-05 09:01:00
5:05 AM,51.8,48.2,88,30.12,1.0,Calm,Calm,-,N/A,,Mist,0,2013-08-05 09:05:00
5:12 AM,51.8,48.2,88,30.12,0.5,Calm,Calm,-,N/A,Fog,Fog,0,2013-08-05 09:12:00
5:19 AM,50.0,48.2,94,30.12,0.5,Calm,Calm,-,N/A,Fog,Fog,0,2013-08-05 09:19:00
5:29 AM,50.0,46.4,87,30.12,0.2,Calm,Calm,-,N/A,Fog,Fog,0,2013-08-05 09:29:00
5:39 AM,51.8,48.2,88,30.12,0.8,Calm,Calm,-,N/A,,Clear,0,2013-08-05 09:39:00
5:56 AM,50.0,46.9,89,30.12,1.0,Calm,Calm,-,N/A,,Clear,0,2013-08-05 09:56:00
6:18 AM,48.2,46.4,93,30.13,3.0,Calm,Calm,-,N/A,,Clear,0,2013-08-05 10:18:00
6:56 AM,51.1,50.0,96,30.13,7.0,Calm,Calm,-,N/A,,Clear,0,2013-08-05 10:56:00
7:56 AM,54.0,51.1,90,30.14,10.0,Calm,Calm,-,N/A,,Clear,0,2013-08-05 11:56:00
8:56 AM,59.0,51.1,75,30.13,10.0,ENE,3.5,-,N/A,,Clear,70,2013-08-05 12:56:00
9:56 AM,63.0,48.9,60,30.13,10.0,Calm,Calm,-,N/A,,Clear,0,2013-08-05 13:56:00
10:56 AM,66.0,48.9,54,30.12,10.0,SW,3.5,-,N/A,,Clear,230,2013-08-05 14:56:00
11:56 AM,66.9,48.9,52,30.12,10.0,Calm,Calm,-,N/A,,Mostly Cloudy,0,2013-08-05 15:56:00
12:56 PM,66.9,48.9,52,30.10,10.0,West,4.6,-,N/A,,Mostly Cloudy,270,2013-08-05 16:56:00
1:56 PM,69.1,48.9,49,30.09,10.0,West,6.9,-,N/A,,Mostly Cloudy,270,2013-08-05 17:56:00
2:56 PM,69.1,50.0,51,30.08,10.0,West,6.9,-,N/A,,Scattered Clouds,280,2013-08-05 18:56:00
3:56 PM,70.0,48.9,47,30.06,10.0,Variable,3.5,-,N/A,,Clear,0,2013-08-05 19:56:00
4:56 PM,68.0,50.0,52,30.07,10.0,WSW,6.9,-,N/A,,Clear,250,2013-08-05 20:56:00
5:56 PM,68.0,51.1,55,30.08,10.0,West,8.1,-,N/A,,Scattered Clouds,260,2013-08-05 21:56:00
6:56 PM,66.0,53.1,63,30.07,10.0,Calm,Calm,-,N/A,,Clear,0,2013-08-05 22:56:00
7:56 PM,64.0,54.0,70,30.06,10.0,Calm,Calm,-,N/A,,Clear,0,2013-08-05 23:56:00
8:56 PM,61.0,54.0,78,30.06,10.0,Calm,Calm,-,N/A,,Clear,0,2013-08-06 00:56:00
9:56 PM,59.0,53.1,81,30.06,10.0,Calm,Calm,-,N/A,,Clear,0,2013-08-06 01:56:00
10:56 PM,57.0,53.1,87,30.05,10.0,Calm,Calm,-,N/A,,Clear,0,2013-08-06 02:56:00
11:56 PM,57.0,51.1,81,30.05,10.0,Calm,Calm,-,N/A,,Clear,0,2013-08-06 03:56:00